﻿測定場所 (Monitoring sites),日付 (Measurement date),時間 (Measurement time),線量率 最大値 (max) μGy/h,線量率 最小値 (min) μGy/h,線量率 平均値 (average) μGy/h,
大田 (Ota),2012-05-06,23:01～24:00,0.0626,0.0532,0.0577,
大田 (Ota),2012-05-06,22:01～23:00,0.0608,0.0546,0.0574,
大田 (Ota),2012-05-06,21:01～22:00,0.0605,0.0540,0.0577,
大田 (Ota),2012-05-06,20:01～21:00,0.0606,0.0545,0.0576,
大田 (Ota),2012-05-06,19:01～20:00,0.0618,0.0537,0.0582,
大田 (Ota),2012-05-06,18:01～19:00,0.0638,0.0546,0.0594,
大田 (Ota),2012-05-06,17:01～18:00,0.0671,0.0591,0.0623,
大田 (Ota),2012-05-06,16:01～17:00,0.0636,0.0551,0.0584,
大田 (Ota),2012-05-06,15:01～16:00,0.0616,0.0545,0.0579,
大田 (Ota),2012-05-06,14:01～15:00,0.0622,0.0545,0.0581,
大田 (Ota),2012-05-06,13:01～14:00,0.0610,0.0531,0.0574,
大田 (Ota),2012-05-06,12:01～13:00,0.0608,0.0533,0.0574,
大田 (Ota),2012-05-06,11:01～12:00,0.0604,0.0530,0.0576,
大田 (Ota),2012-05-06,10:01～11:00,0.0603,0.0526,0.0574,
大田 (Ota),2012-05-06,09:01～10:00,0.0617,0.0547,0.0580,
大田 (Ota),2012-05-06,08:01～09:00,0.0611,0.0537,0.0579,
大田 (Ota),2012-05-06,07:01～08:00,0.0617,0.0542,0.0578,
大田 (Ota),2012-05-06,06:01～07:00,0.0599,0.0537,0.0573,
大田 (Ota),2012-05-06,05:01～06:00,0.0636,0.0541,0.0575,
大田 (Ota),2012-05-06,04:01～05:00,0.0619,0.0542,0.0578,
大田 (Ota),2012-05-06,03:01～04:00,0.0603,0.0539,0.0571,
大田 (Ota),2012-05-06,02:01～03:00,0.0614,0.0541,0.0576,
大田 (Ota),2012-05-06,01:01～02:00,0.0610,0.0526,0.0576,
大田 (Ota),2012-05-06,00:01～01:00,0.0612,0.0537,0.0575,
大田 (Ota),2012-05-05,23:01～24:00,0.0612,0.0542,0.0576,
大田 (Ota),2012-05-05,22:01～23:00,0.0608,0.0543,0.0577,
大田 (Ota),2012-05-05,21:01～22:00,0.0613,0.0547,0.0577,
大田 (Ota),2012-05-05,20:01～21:00,0.0605,0.0546,0.0573,
大田 (Ota),2012-05-05,19:01～20:00,0.0617,0.0524,0.0575,
大田 (Ota),2012-05-05,18:01～19:00,0.0609,0.0551,0.0575,
大田 (Ota),2012-05-05,17:01～18:00,0.0609,0.0544,0.0573,
大田 (Ota),2012-05-05,16:01～17:00,0.0596,0.0532,0.0569,
大田 (Ota),2012-05-05,15:01～16:00,0.0605,0.0540,0.0573,
大田 (Ota),2012-05-05,14:01～15:00,0.0601,0.0525,0.0569,
大田 (Ota),2012-05-05,13:01～14:00,0.0615,0.0537,0.0573,
大田 (Ota),2012-05-05,12:01～13:00,0.0611,0.0528,0.0572,
大田 (Ota),2012-05-05,11:01～12:00,0.0606,0.0532,0.0570,
大田 (Ota),2012-05-05,10:01～11:00,0.0615,0.0540,0.0569,
大田 (Ota),2012-05-05,09:01～10:00,0.0612,0.0515,0.0575,
大田 (Ota),2012-05-05,08:01～09:00,0.0615,0.0539,0.0570,
大田 (Ota),2012-05-05,07:01～08:00,0.0611,0.0534,0.0570,
大田 (Ota),2012-05-05,06:01～07:00,0.0601,0.0532,0.0568,
大田 (Ota),2012-05-05,05:01～06:00,0.0606,0.0517,0.0567,
大田 (Ota),2012-05-05,04:01～05:00,0.0604,0.0536,0.0565,
大田 (Ota),2012-05-05,03:01～04:00,0.0594,0.0536,0.0562,
大田 (Ota),2012-05-05,02:01～03:00,0.0596,0.0524,0.0564,
大田 (Ota),2012-05-05,01:01～02:00,0.0602,0.0527,0.0564,
大田 (Ota),2012-05-05,00:01～01:00,0.0606,0.0534,0.0568,
大田 (Ota),2012-05-04,23:01～24:00,0.0604,0.0533,0.0572,
大田 (Ota),2012-05-04,22:01～23:00,0.0595,0.0530,0.0567,
大田 (Ota),2012-05-04,21:01～22:00,0.0593,0.0519,0.0560,
大田 (Ota),2012-05-04,20:01～21:00,0.0597,0.0530,0.0564,
大田 (Ota),2012-05-04,19:01～20:00,0.0611,0.0533,0.0570,
大田 (Ota),2012-05-04,18:01～19:00,0.0630,0.0553,0.0587,
大田 (Ota),2012-05-04,17:01～18:00,0.0704,0.0588,0.0648,
大田 (Ota),2012-05-04,16:01～17:00,0.0780,0.0671,0.0705,
大田 (Ota),2012-05-04,15:01～16:00,0.0724,0.0585,0.0647,
大田 (Ota),2012-05-04,14:01～15:00,0.0644,0.0522,0.0566,
大田 (Ota),2012-05-04,13:01～14:00,0.0613,0.0521,0.0568,
大田 (Ota),2012-05-04,12:01～13:00,0.0605,0.0534,0.0574,
大田 (Ota),2012-05-04,11:01～12:00,0.0617,0.0528,0.0572,
大田 (Ota),2012-05-04,10:01～11:00,0.0598,0.0544,0.0572,
大田 (Ota),2012-05-04,09:01～10:00,0.0600,0.0532,0.0568,
大田 (Ota),2012-05-04,08:01～09:00,0.0606,0.0534,0.0568,
大田 (Ota),2012-05-04,07:01～08:00,0.0610,0.0526,0.0568,
大田 (Ota),2012-05-04,06:01～07:00,0.0600,0.0527,0.0566,
大田 (Ota),2012-05-04,05:01～06:00,0.0597,0.0532,0.0565,
大田 (Ota),2012-05-04,04:01～05:00,0.0605,0.0543,0.0568,
大田 (Ota),2012-05-04,03:01～04:00,0.0606,0.0532,0.0566,
大田 (Ota),2012-05-04,02:01～03:00,0.0600,0.0533,0.0566,
大田 (Ota),2012-05-04,01:01～02:00,0.0599,0.0536,0.0567,
大田 (Ota),2012-05-04,00:01～01:00,0.0592,0.0532,0.0561,
大田 (Ota),2012-05-03,23:01～24:00,0.0597,0.0524,0.0561,
大田 (Ota),2012-05-03,22:01～23:00,0.0594,0.0524,0.0563,
大田 (Ota),2012-05-03,21:01～22:00,0.0615,0.0529,0.0562,
大田 (Ota),2012-05-03,20:01～21:00,0.0595,0.0516,0.0560,
大田 (Ota),2012-05-03,19:01～20:00,0.0591,0.0532,0.0567,
大田 (Ota),2012-05-03,18:01～19:00,0.0611,0.0535,0.0574,
大田 (Ota),2012-05-03,17:01～18:00,0.0604,0.0533,0.0575,
大田 (Ota),2012-05-03,16:01～17:00,0.0614,0.0546,0.0578,
大田 (Ota),2012-05-03,15:01～16:00,0.0648,0.0562,0.0600,
大田 (Ota),2012-05-03,14:01～15:00,0.0684,0.0592,0.0640,
大田 (Ota),2012-05-03,13:01～14:00,0.0690,0.0600,0.0639,
大田 (Ota),2012-05-03,12:01～13:00,0.0708,0.0581,0.0638,
大田 (Ota),2012-05-03,11:01～12:00,0.0724,0.0631,0.0676,
大田 (Ota),2012-05-03,10:01～11:00,0.0730,0.0637,0.0670,
大田 (Ota),2012-05-03,09:01～10:00,0.0697,0.0631,0.0662,
大田 (Ota),2012-05-03,08:01～09:00,0.0791,0.0654,0.0715,
大田 (Ota),2012-05-03,07:01～08:00,0.0847,0.0717,0.0784,
大田 (Ota),2012-05-03,06:01～07:00,0.0871,0.0731,0.0789,
大田 (Ota),2012-05-03,05:01～06:00,0.0902,0.0716,0.0793,
大田 (Ota),2012-05-03,04:01～05:00,0.0831,0.0705,0.0752,
大田 (Ota),2012-05-03,03:01～04:00,0.0813,0.0665,0.0726,
大田 (Ota),2012-05-03,02:01～03:00,0.0739,0.0636,0.0681,
大田 (Ota),2012-05-03,01:01～02:00,0.0701,0.0641,0.0669,
大田 (Ota),2012-05-03,00:01～01:00,0.0697,0.0607,0.0649,
大田 (Ota),2012-05-02,23:01～24:00,0.0697,0.0596,0.0634,
大田 (Ota),2012-05-02,22:01～23:00,0.0658,0.0581,0.0624,
大田 (Ota),2012-05-02,21:01～22:00,0.0647,0.0572,0.0613,
大田 (Ota),2012-05-02,20:01～21:00,0.0651,0.0579,0.0618,
大田 (Ota),2012-05-02,19:01～20:00,0.0683,0.0591,0.0628,
大田 (Ota),2012-05-02,18:01～19:00,0.0678,0.0601,0.0641,
大田 (Ota),2012-05-02,17:01～18:00,0.0665,0.0600,0.0631,
大田 (Ota),2012-05-02,16:01～17:00,0.0666,0.0571,0.0620,
大田 (Ota),2012-05-02,15:01～16:00,0.0661,0.0580,0.0614,
大田 (Ota),2012-05-02,14:01～15:00,0.0656,0.0570,0.0607,
大田 (Ota),2012-05-02,13:01～14:00,0.0642,0.0566,0.0605,
大田 (Ota),2012-05-02,12:01～13:00,0.0639,0.0553,0.0594,
大田 (Ota),2012-05-02,11:01～12:00,0.0640,0.0548,0.0585,
大田 (Ota),2012-05-02,10:01～11:00,0.0619,0.0533,0.0572,
大田 (Ota),2012-05-02,09:01～10:00,0.0611,0.0526,0.0573,
大田 (Ota),2012-05-02,08:01～09:00,0.0624,0.0540,0.0574,
大田 (Ota),2012-05-02,07:01～08:00,0.0613,0.0535,0.0569,
大田 (Ota),2012-05-02,06:01～07:00,0.0612,0.0537,0.0574,
大田 (Ota),2012-05-02,05:01～06:00,0.0617,0.0540,0.0574,
大田 (Ota),2012-05-02,04:01～05:00,0.0611,0.0532,0.0572,
大田 (Ota),2012-05-02,03:01～04:00,0.0607,0.0549,0.0573,
大田 (Ota),2012-05-02,02:01～03:00,0.0610,0.0530,0.0573,
大田 (Ota),2012-05-02,01:01～02:00,0.0608,0.0535,0.0571,
大田 (Ota),2012-05-02,00:01～01:00,0.0601,0.0542,0.0569,
大田 (Ota),2012-05-01,23:01～24:00,0.0606,0.0544,0.0576,
大田 (Ota),2012-05-01,22:01～23:00,0.0602,0.0546,0.0574,
大田 (Ota),2012-05-01,21:01～22:00,0.0596,0.0535,0.0572,
大田 (Ota),2012-05-01,20:01～21:00,0.0602,0.0537,0.0572,
大田 (Ota),2012-05-01,19:01～20:00,0.0593,0.0540,0.0571,
大田 (Ota),2012-05-01,18:01～19:00,0.0622,0.0545,0.0572,
大田 (Ota),2012-05-01,17:01～18:00,0.0613,0.0533,0.0568,
大田 (Ota),2012-05-01,16:01～17:00,0.0608,0.0538,0.0571,
大田 (Ota),2012-05-01,15:01～16:00,0.0619,0.0540,0.0571,
大田 (Ota),2012-05-01,14:01～15:00,0.0621,0.0544,0.0575,
大田 (Ota),2012-05-01,13:01～14:00,0.0613,0.0547,0.0575,
大田 (Ota),2012-05-01,12:01～13:00,0.0603,0.0539,0.0572,
大田 (Ota),2012-05-01,11:01～12:00,0.0605,0.0548,0.0576,
大田 (Ota),2012-05-01,10:01～11:00,0.0604,0.0534,0.0571,
大田 (Ota),2012-05-01,09:01～10:00,0.0606,0.0534,0.0573,
大田 (Ota),2012-05-01,08:01～09:00,0.0634,0.0545,0.0571,
大田 (Ota),2012-05-01,07:01～08:00,0.0606,0.0542,0.0576,
大田 (Ota),2012-05-01,06:01～07:00,0.0618,0.0540,0.0574,
大田 (Ota),2012-05-01,05:01～06:00,0.0619,0.0517,0.0574,
大田 (Ota),2012-05-01,04:01～05:00,0.0610,0.0546,0.0576,
大田 (Ota),2012-05-01,03:01～04:00,0.0615,0.0542,0.0573,
大田 (Ota),2012-05-01,02:01～03:00,0.0610,0.0535,0.0572,
大田 (Ota),2012-05-01,01:01～02:00,0.0603,0.0533,0.0570,
大田 (Ota),2012-05-01,00:01～01:00,0.0605,0.0543,0.0573,
大田 (Ota),2012-04-30,23:01～24:00,0.0605,0.0534,0.0571,
大田 (Ota),2012-04-30,22:01～23:00,0.0599,0.0527,0.0569,
大田 (Ota),2012-04-30,21:01～22:00,0.0614,0.0537,0.0572,
大田 (Ota),2012-04-30,20:01～21:00,0.0604,0.0543,0.0574,
大田 (Ota),2012-04-30,19:01～20:00,0.0603,0.0527,0.0568,
大田 (Ota),2012-04-30,18:01～19:00,0.0619,0.0538,0.0568,
大田 (Ota),2012-04-30,17:01～18:00,0.0610,0.0533,0.0572,
大田 (Ota),2012-04-30,16:01～17:00,0.0613,0.0546,0.0572,
大田 (Ota),2012-04-30,15:01～16:00,0.0610,0.0547,0.0572,
大田 (Ota),2012-04-30,14:01～15:00,0.0606,0.0545,0.0576,
大田 (Ota),2012-04-30,13:01～14:00,0.0619,0.0535,0.0571,
大田 (Ota),2012-04-30,12:01～13:00,0.0606,0.0546,0.0573,
大田 (Ota),2012-04-30,11:01～12:00,0.0601,0.0534,0.0570,
大田 (Ota),2012-04-30,10:01～11:00,0.0612,0.0539,0.0573,
大田 (Ota),2012-04-30,09:01～10:00,0.0609,0.0537,0.0575,
大田 (Ota),2012-04-30,08:01～09:00,0.0607,0.0549,0.0575,
大田 (Ota),2012-04-30,07:01～08:00,0.0616,0.0545,0.0575,
大田 (Ota),2012-04-30,06:01～07:00,0.0603,0.0537,0.0573,
大田 (Ota),2012-04-30,05:01～06:00,0.0614,0.0522,0.0569,
大田 (Ota),2012-04-30,04:01～05:00,0.0609,0.0536,0.0571,
大田 (Ota),2012-04-30,03:01～04:00,0.0603,0.0539,0.0569,
大田 (Ota),2012-04-30,02:01～03:00,0.0617,0.0534,0.0576,
大田 (Ota),2012-04-30,01:01～02:00,0.0620,0.0538,0.0576,
大田 (Ota),2012-04-30,00:01～01:00,0.0624,0.0547,0.0576,
